Location: Mountain Grove
(34.0887°N, 86.6172°W)
Time: 23:56:55
(UTC+00:00)

Cosmos 1763 Rocket - Pass Details

Date: 14 July 2020
Orbit: 732 x 781 km, 74.0° (Epoch: 12 August)

Event Time Altitude Azimuth Distance (km) Brightness Sun altitude
Rises 09:06:12 0° 343° (NNW) 3,244 7.1 -17.7°
Reaches altitude 10° 09:08:34 10° 343° (NNW) 2,320 6.3 -17.4°
Maximum altitude 09:13:52 90° 55° (NE) 782 3.5 -16.6°
Drops below altitude 10° 09:19:10 10° 164° (SSE) 2,323 5.7 -15.7°
Sets 09:21:32 0° 165° (SSE) 3,248 6.5 -15.4°
